Location: Feistritz
(48.3333°N, 15.2667°E)
Time: 05:57:01
(UTC+00:00)

Daily predictions for brighter satellites

Satellite Brightness Start Highest point End
(mag) Time Altitude Azimuth Time Altitude Azimuth Time Altitude Azimuth
CENTAUR R/B 4.3 02:10:28 34° NNE 02:10:28 34° NNE 02:17:31 10° E
USA 238 DEB 4.5 02:42:26 50° ENE 02:42:26 50° ENE 02:48:24 10° ESE
USA 238 4.5 02:42:31 50° ENE 02:42:31 50° ENE 02:48:30 10° ESE
Cosmos 2344 4.0 02:59:55 50° SSE 03:01:02 55° ESE 03:08:51 10° NE
Lacrosse 5 rocket 4.2 03:08:33 16° NE 03:08:33 16° NE 03:09:36 10° NE
COSMOS 2455 4.4 03:08:10 23° SSE 03:10:37 31° ESE 03:15:49 10° NE
Cosmos 2263 Rocket 3.7 03:18:49 27° NNE 03:20:29 32° NE 03:25:31 10° ESE
CZ-2C R/B 4.3 03:26:05 10° NNE 03:27:49 22° NNE 03:27:49 22° NNE
NOSS 3-2 (C) 4.2 03:31:22 47° NNW 03:33:42 69° NE 03:41:59 10° SE
Cosmos 2327 Rocket 4.4 03:34:31 78° SSE 03:34:31 78° SSE 03:40:14 10° S
Nadezhda 1 Rocket 4.0 03:33:15 34° S 03:35:57 73° E 03:42:02 10° NNE
ATLAS 3B R/B 3.4 03:36:59 33° N 03:39:27 46° NE 03:46:01 10° ESE
Cosmos 2278 3.8 03:42:07 71° SSE 03:42:32 75° ESE 03:48:15 10° NNE
Cosmos 1538 Rocket 4.2 03:46:11 63° SSE 03:46:48 70° ESE 03:52:05 10° NNE
SKYMED 2 4.3 03:43:24 10° SSE 03:47:01 50° ESE 03:47:01 50° ESE
CZ-3 R/B 4.2 03:41:00 25° SW 03:48:42 31° SSW 03:56:42 10° SE
Cosmos 1758 Rocket 4.2 03:49:50 54° E 03:49:50 54° E 03:53:52 10° SSE
Cosmos 2369 3.7 03:52:45 67° NNW 03:52:45 67° NNW 03:57:56 10° NNE
NOSS 3-2 (A) 3.9 03:52:25 52° WNW 03:54:31 76° SW 04:02:53 10° SSE
SL-16 R/B 4.5 03:50:16 10° SSE 03:54:38 23° ESE 03:59:00 10° NE
USA 215 3.1 03:48:52 10° ESE 03:55:25 88° NE 03:57:09 53° NW
Cosmos 972 Rocket 4.4 03:51:53 26° NNW 03:55:33 76° ENE 04:01:10 10° SSE
Cosmos 1726 3.9 03:53:02 10° SSE 03:56:18 31° E 03:59:35 10° NNE
CENTAUR R/B 3.2 03:57:40 32° NW 04:01:58 78° NE 04:10:41 10° SE
ADEOS Rocket 4.4 03:57:49 10° ESE 04:02:36 31° ENE 04:07:36 10° N
STARLINK 4.5 04:03:12 43° SE 04:03:12 43° SE 04:06:57 10° ENE
STARLINK-69 4.3 04:05:03 47° SE 04:05:03 47° SE 04:08:48 10° ENE
Okean O Rocket 3.7 04:01:36 10° NE 04:05:28 28° E 04:09:18 10° SSE
STARLINK-21 4.3 04:06:25 46° SE 04:06:26 46° SE 04:10:18 10° ENE
Cosmos 1980 Rocket 2.1 04:05:29 35° SSW 04:08:00 86° ESE 04:13:44 10° NNE
STARLINK-45 4.2 04:08:20 51° SE 04:08:20 51° SE 04:12:13 10° ENE
STARLINK-70 4.2 04:09:45 50° SSE 04:09:48 50° SE 04:13:44 10° ENE
STARLINK-26 4.4 04:11:37 39° ENE 04:11:37 39° ENE 04:13:57 10° ENE
STARLINK-76 4.2 04:11:11 49° SSE 04:11:22 49° SE 04:15:16 10° ENE
Cosmos 2154 Rocket 3.9 04:06:06 10° NNW 04:12:11 60° W 04:18:14 10° S
STARLINK-61 3.7 04:12:49 67° E 04:12:49 67° E 04:16:22 10° ENE
STARLINK 4.1 04:12:47 50° SSE 04:13:02 51° SE 04:16:57 10° ENE
STARLINK-75 3.9 04:13:58 57° SE 04:13:58 57° SE 04:17:34 10° ENE
Cosmos 1825 Rocket 3.4 04:13:29 64° N 04:14:08 85° E 04:18:29 10° S
STARLINK-32 4.1 04:14:22 51° SSE 04:14:39 52° SE 04:18:35 10° ENE
Cosmos 1697 Rocket 2.8 04:15:14 52° NW 04:15:14 52° NW 04:20:37 10° NNE
SJ-12 4.1 04:12:10 10° NNE 04:16:15 69° ESE 04:20:18 10° S
STARLINK-40 4.0 04:15:59 51° SSE 04:16:20 53° SE 04:20:16 10° ENE
STARLINK-44 4.0 04:17:32 52° S 04:17:58 55° SE 04:21:54 10° ENE
Abrixas rocket 3.9 04:19:21 26° SE 04:19:21 26° SE 04:20:56 10° SE
STARLINK-37 3.9 04:19:18 54° S 04:19:43 58° SSE 04:23:42 10° ENE
SL-4 R/B 3.4 04:22:06 23° S 04:22:06 23° S 04:23:48 10° SSE
STARLINK-36 3.9 04:20:44 52° S 04:21:16 57° SSE 04:25:14 10° ENE
STARLINK-41 3.8 04:21:02 56° SSE 04:21:18 58° SSE 04:25:04 10° ENE
STARLINK-68 3.8 04:22:35 57° S 04:23:05 63° SSE 04:27:05 10° ENE
ATLAS 2AS CENTAUR R/B 3.3 04:16:10 10° SSW 04:24:03 69° SE 04:32:00 10° NE
STARLINK-63 3.8 04:24:03 54° SSW 04:24:39 63° SSE 04:28:39 10° ENE
ALOS 2.3 04:20:48 10° NNE 04:25:30 81° ESE 04:30:10 10° S
STARLINK-29 3.9 04:25:44 44° NNE 04:25:44 44° NNE 04:29:00 10° E
EXPRESS MD2 3.6 04:26:43 42° ENE 04:26:43 42° ENE 04:28:22 10° ENE
STARLINK-35 3.8 04:25:29 51° SSW 04:26:12 62° SSE 04:30:11 10° ENE
STARLINK-52 4.0 04:26:40 43° NNE 04:26:40 43° NNE 04:29:53 10° E
Cosmos 1295 Rocket 4.4 04:21:04 10° NNW 04:27:10 60° W 04:33:09 10° S
STARLINK 3.7 04:27:00 52° S 04:27:34 59° SSE 04:31:20 10° ENE
STARLINK-51 3.8 04:27:05 51° SSW 04:27:51 64° SSE 04:31:51 10° ENE
Genesis I 3.3 04:28:12 55° N 04:28:51 69° NE 04:32:40 10° SE
STARLINK-30 3.8 04:28:40 50° SSW 04:29:29 65° SSE 04:33:29 10° ENE
Lacrosse 5 4.0 04:26:54 10° S 04:30:58 25° SE 04:35:03 10° ENE
STARLINK-72 3.7 04:30:16 49° SSW 04:31:09 67° SSE 04:35:10 10° ENE
USA 238 DEB 4.1 04:29:55 36° W 04:32:04 44° WSW 04:39:00 10° S
USA 238 4.1 04:30:00 36° WNW 04:32:11 45° WSW 04:39:07 10° S
STARLINK-33 3.2 04:32:13 69° SSW 04:32:29 74° SSE 04:36:05 10° ENE
STARLINK-50 3.7 04:31:50 48° SSW 04:32:47 69° SSE 04:36:48 10° ENE
CZ-4B R/B 4.4 04:28:52 10° N 04:30:59 25° NNW 04:30:59 25° NNW
Cosmos 2227 4.1 04:31:36 31° NW 04:34:22 68° WSW 04:39:55 10° SSE
STARLINK-59 3.6 04:33:35 49° SW 04:34:32 72° SSE 04:38:34 10° ENE
Cosmos 1606 Rocket 3.4 04:30:16 10° S 04:34:43 85° W 04:39:09 10° N
STARLINK-66 3.2 04:34:46 68° SSW 04:35:06 78° SSE 04:38:43 10° ENE
COSMO-SKYMED 1 2.7 04:31:33 10° S 04:35:40 49° WSW 04:35:40 49° WSW
Cosmos 1726 Rocket 3.6 04:31:36 10° S 04:36:02 80° E 04:40:28 10° NNE
STARLINK-56 3.6 04:35:02 46° SW 04:36:07 72° SSE 04:40:08 10° ENE
Cosmos 2366 rocket 4.2 04:30:46 10° N 04:37:09 77° E 04:43:30 10° SSE
STARLINK-55 3.1 04:37:13 68° SW 04:37:38 82° SSE 04:41:13 10° ENE
Starlink (trailer) 3.6 04:36:37 45° SW 04:37:45 73° SSE 04:41:47 10° ENE
Cosmos 1703 3.2 04:35:28 17° N 04:38:29 83° E 04:42:25 10° S
STARLINK-38 3.6 04:38:13 43° SW 04:39:25 75° SSE 04:43:27 10° ENE
STARLINK-28 3.1 04:39:14 68° WSW 04:39:38 88° SSE 04:43:12 10° ENE
Helios 1A Rocket 4.1 04:36:17 10° NNE 04:40:16 45° E 04:44:15 10° S
STARLINK-65 3.6 04:39:48 42° SW 04:41:04 77° SSE 04:45:06 10° ENE
Meteor 1-21 Rocket 4.5 04:36:34 11° NNW 04:41:54 48° W 04:47:32 10° SSW
STARLINK-53 3.5 04:41:32 42° SW 04:42:49 81° SSE 04:46:52 10° ENE
STARLINK-80 3.9 04:43:57 41° NNW 04:44:24 43° N 04:48:03 10° ENE
Lacrosse 5 rocket 2.9 04:44:11 23° NNW 04:45:31 27° N 04:49:21 10° ENE
NOSS 2-2 (D) 3.9 04:48:16 36° NW 04:48:24 36° NW 04:52:27 10° NNE
Cosmos 1624 Rocket 4.1 04:45:55 10° NNW 04:51:10 74° ENE 04:56:21 10° SSE
CZ-4B DEB 4.1 04:46:12 10° NNE 04:51:47 77° WNW 04:57:17 10° SSW
Cosmos 2228 3.0 04:51:02 10° SSW 04:55:23 58° WNW 04:59:45 10° N
STARLINK-58 3.4 04:54:10 32° WSW 04:55:59 88° NNW 05:00:02 10° ENE
COSMOS 2455 2.9 04:51:25 16° SW 04:56:15 58° NW 05:02:14 10° NNE
STARLINK-62 3.4 04:55:51 31° WSW 04:57:42 85° NNW 05:01:45 10° ENE
Cosmos 2322 Rocket 2.8 04:52:35 10° S 04:58:07 59° ESE 05:03:44 10° NE
STARLINK-48 4.0 05:00:06 32° WNW 05:01:22 45° N 05:05:07 10° ENE
Cosmos 1953 3.6 05:02:55 23° NW 05:02:55 23° NW 05:05:12 10° NNW
STARLINK 1012 4.5 04:59:29 11° SSW 05:01:52 30° SE 05:04:30 10° ENE
STARLINK 1010 4.5 04:59:41 11° SSW 05:02:05 30° SE 05:04:43 10° ENE
STARLINK 1026 4.5 04:59:50 11° SSW 05:02:14 31° SE 05:04:53 10° ENE
STARLINK 1013 4.5 05:00:06 11° SSW 05:02:32 31° SE 05:05:10 10° ENE
STARLINK 1009 4.5 05:00:20 11° SSW 05:02:46 31° SE 05:05:25 10° ENE
STARLINK 1015 4.5 05:00:33 11° SSW 05:02:59 31° SE 05:05:38 10° ENE
STARLINK 1016 4.4 05:00:46 11° SSW 05:03:12 31° SE 05:05:51 10° ENE
STARLINK 1008 4.4 05:00:59 11° SSW 05:03:26 31° SE 05:06:05 10° ENE
STARLINK 1025 4.4 05:01:24 11° SSW 05:03:51 31° SE 05:06:30 10° ENE
METEOR-M 4.2 04:58:46 10° N 05:03:59 54° WNW 05:09:10 10° SW
STARLINK 1017 4.4 05:01:38 11° SSW 05:04:06 32° SE 05:06:46 10° ENE
STARLINK 1023 4.4 05:01:50 11° SSW 05:04:19 32° SE 05:06:59 10° ENE
STARLINK 1007 4.4 05:02:05 11° SSW 05:04:34 32° SE 05:07:14 10° ENE
Cosmos 2263 Rocket 2.4 05:00:32 18° NW 05:04:39 52° WSW 05:10:07 10° S
STARLINK 1048 4.4 05:02:17 11° SSW 05:04:48 32° SE 05:07:28 10° ENE
STARLINK 1049 4.4 05:02:30 11° SSW 05:05:01 32° SE 05:07:41 10° ENE
STARLINK 1051 4.4 05:02:43 11° SSW 05:05:14 32° SE 05:07:54 10° ENE
Cosmos 2056 Rocket 3.5 05:00:50 10° NNW 05:06:18 87° WSW 05:11:44 10° SSE
STARLINK-42 3.3 05:05:33 28° WSW 05:07:25 74° NNW 05:11:12 10° ENE
STARLINK-60 3.0 05:06:16 34° WNW 05:07:35 81° SSW 05:10:57 10° ESE
CZ-2C R/B 4.2 05:05:39 10° NNW 05:07:13 15° NW 05:07:13 15° NW
STARLINK 1014 4.3 05:06:07 10° SSW 05:08:50 35° SE 05:11:36 10° ENE
Orbus 7S? 4.2 05:07:25 27° W 05:09:00 44° SW 05:15:11 10° SSE
Cosmos 923 Rocket 4.1 05:07:20 10° SW 05:12:30 53° WNW 05:17:43 10° NNE
SL-8 Rocket 4.1 05:06:49 10° NNW 05:12:45 49° W 05:18:37 10° SSW
STARLINK-64 3.3 05:11:18 24° WSW 05:13:29 70° NNW 05:17:17 10° ENE
Cosmos 2181 Rocket 4.1 05:07:31 10° SSW 05:13:37 56° WNW 05:19:51 10° N
Cosmos 2344 4.0 05:09:57 17° W 05:15:42 46° NNW 05:24:07 10° NE
Cosmos 1844 Rocket 3.4 05:12:06 10° NNW 05:17:37 53° NE 05:23:08 10° SE
STARLINK-34 3.5 05:16:26 20° WSW 05:19:09 68° NNW 05:23:11 10° ENE
Meteor 2-10 4.4 05:14:30 10° SW 05:19:45 44° WNW 05:24:52 10° N
STARLINK 1020 4.5 05:17:02 10° SW 05:20:31 43° SE 05:24:03 10° ENE
STARLINK-24 3.5 05:18:00 19° WSW 05:20:48 67° NNW 05:24:49 10° ENE
STARLINK-81 3.5 05:19:20 18° WSW 05:22:16 69° NNW 05:26:19 10° ENE
Cosmos 1953 Rocket 4.4 05:18:42 10° NNW 05:22:29 29° W 05:26:15 10° SSW
STARLINK 1034 4.4 05:19:45 10° SW 05:23:14 45° SE 05:26:45 10° ENE
SMAP 3.4 05:19:03 10° NNE 05:23:43 71° ESE 05:28:21 10° S
STARLINK-54 3.6 05:21:12 18° W 05:24:07 65° NNW 05:28:09 10° ENE
STARLINK-77 3.5 05:22:31 17° WSW 05:25:34 67° NNW 05:29:36 10° ENE
STARLINK-25 3.5 05:24:08 16° WSW 05:27:16 66° NNW 05:31:18 10° ENE
STARLINK-71 3.6 05:26:01 16° W 05:29:08 62° NNW 05:33:08 10° ENE
STARLINK 1033 4.2 05:25:49 10° SW 05:29:21 49° SE 05:32:54 10° ENE
RESURS DK-1 3.0 05:25:38 10° SSW 05:29:42 60° ESE 05:33:48 10° NE
ATLAS 3B R/B 2.9 05:24:15 12° NW 05:30:18 53° WSW 05:36:59 10° SSE
STARLINK-79 3.6 05:27:15 15° W 05:30:32 64° NNW 05:34:33 10° ENE
Cosmos 1726 3.3 05:28:47 10° WSW 05:31:35 20° WNW 05:34:24 10° NNW
STARLINK-78 3.6 05:28:54 14° W 05:32:14 63° NNW 05:36:15 10° ENE
STARLINK-57 3.6 05:30:40 14° W 05:34:01 61° NNW 05:38:01 10° ENE
Cosmos 1812 Rocket 4.1 05:29:50 10° S 05:34:08 63° E 05:38:31 10° NNE
STARLINK-49 3.6 05:32:03 13° W 05:35:32 61° NNW 05:39:31 10° ENE
STARLINK-27 3.6 05:33:40 13° W 05:37:12 60° NNW 05:41:12 10° ENE
SL-16 R/B 2.2 05:32:37 10° SW 05:38:15 64° WNW 05:43:55 10° NNE
STARLINK-74 3.7 05:35:15 12° W 05:38:52 59° NNW 05:42:52 10° ENE
USA 215 4.1 05:33:10 10° SSE 05:38:55 33° SW 05:44:30 11° WNW
NOSS 3-4 (A) 3.5 05:33:56 10° SW 05:39:54 63° NW 05:46:21 10° NE
NOSS 3-4 (C) 3.5 05:34:01 10° SW 05:40:00 64° NW 05:46:27 10° NE
STARLINK-39 3.7 05:36:50 12° W 05:40:31 58° NNW 05:44:30 10° ENE
FENGYUN 3A 4.4 05:36:55 10° N 05:41:28 29° WNW 05:46:03 10° WSW
Okean O Rocket 2.2 05:37:49 10° N 05:41:52 35° WNW 05:45:54 10° SW
STARLINK 3.7 05:38:28 11° W 05:42:12 57° NNW 05:46:12 10° ENE
FALCON 9 DEB 3.3 05:40:35 14° WNW 05:43:29 67° SSW 05:46:59 10° SE
Okean-O 3.5 05:39:38 10° NNE 05:44:01 55° E 05:48:21 10° S
STARLINK-69 3.7 05:40:18 11° W 05:44:03 55° NNW 05:48:02 10° ENE
H-2A R/B 2.8 05:40:24 10° N 05:44:15 56° WNW 05:48:03 10° SSW
STARLINK 1040 2.7 05:41:32 10° WSW 05:44:22 78° SSE 05:47:13 10° ENE
STARLINK-21 3.7 05:41:41 11° W 05:45:33 56° NNW 05:49:31 10° ENE
Cosmos 2360 Rocket 2.6 05:40:00 10° SSW 05:45:38 72° ESE 05:51:19 10° NNE
Cosmos 1821 Rocket 4.0 05:39:30 10° N 05:45:43 82° W 05:51:50 10° S
CZ-4B R/B 3.5 05:41:03 10° N 05:46:18 44° WNW 05:51:26 10° SW
STARLINK-43 4.0 05:44:11 12° WNW 05:47:25 45° NNE 05:51:01 10° E
STARLINK-45 3.8 05:43:35 10° W 05:47:28 53° NNW 05:51:25 10° ENE
Nadezhda 3 Rocket 4.0 05:41:27 10° S 05:47:36 87° W 05:53:51 10° N
STARLINK-26 3.9 05:44:58 13° WNW 05:47:51 38° N 05:51:09 10° ENE
ADEOS Rocket 3.1 05:42:48 10° S 05:48:01 44° W 05:53:29 10° NNW
BREEZE M DEB (TANK) 3.2 05:45:20 10° WSW 05:48:15 89° NNW 05:56:12 10° ENE
Cosmos 1452 Rocket 3.6 05:43:32 10° NNW 05:48:50 82° ENE 05:54:05 10° SSE
STARLINK-70 3.8 05:45:02 10° W 05:48:59 53° NNW 05:52:56 10° ENE
BREEZE M DEB (TANK) 3.7 05:36:21 11° WNW 05:49:06 71° SSW 05:52:52 10° ESE
STARLINK-76 3.8 05:46:34 10° W 05:50:32 54° NNW 05:54:30 10° ENE
STARLINK-61 4.0 05:47:41 11° W 05:51:21 45° N 05:55:10 10° ENE
Envisat 3.2 05:46:23 10° NNE 05:51:30 78° ESE 05:56:35 10° S
STARLINK 1044 3.6 05:47:52 10° SW 05:51:33 72° SSE 05:55:14 10° ENE
Cosmos 1300 2.7 05:47:56 10° SSW 05:51:43 62° WNW 05:55:32 10° N
Cosmos 2219 Rocket 4.5 05:47:01 10° SSE 05:51:52 30° ESE 05:56:44 10° NE
Cosmos 1844 3.9 05:46:17 10° NNW 05:51:53 75° ENE 05:57:26 10° SSE
STARLINK 3.8 05:48:15 10° W 05:52:12 53° NNW 05:56:10 10° ENE
STARLINK-75 3.8 05:48:33 10° W 05:52:16 48° NNW 05:56:01 10° ENE
CENTAUR R/B 3.9 05:45:15 10° NW 05:52:23 34° WSW 05:59:56 10° S
Cosmos 1980 Rocket 3.4 05:48:24 10° W 05:52:46 22° NW 05:57:08 10° N
NOAA 12 4.3 05:47:34 10° NNE 05:52:54 81° ESE 05:58:13 10° SSW
Abrixas rocket 4.4 05:51:55 10° WSW 05:53:14 12° SW 05:54:34 10° SSW
IRS-1C Rocket 4.1 05:48:15 10° NNE 05:53:33 78° WNW 05:58:48 10° SSW
CZ-2C R/B 3.9 05:48:39 10° SE 05:53:35 42° ENE 05:58:40 10° N
STARLINK-32 3.8 05:49:54 10° W 05:53:51 52° NNW 05:57:49 10° ENE
Cosmos 2237 4.4 05:48:59 10° SSW 05:54:42 80° ESE 06:00:26 10° NNE
STARLINK-40 3.8 05:51:36 10° W 05:55:32 52° NNW 05:59:30 10° ENE
STARLINK-44 3.8 05:53:13 10° W 05:57:10 51° NNW 06:01:07 10° ENE
Alouette 2 Rocket 3.3 05:53:21 10° SSW 05:57:51 73° WNW 06:01:30 10° N
Cosmos 2058 Rocket 4.1 05:54:38 10° SW 05:58:15 25° WNW 06:01:53 10° NNW
STARLINK-37 3.9 05:55:02 10° W 05:58:57 50° NNW 06:02:54 10° ENE
STARLINK-41 3.8 05:56:00 10° W 05:59:43 48° NNW 06:03:27 10° ENE
Cosmos 158 Rocket 4.2 05:55:46 10° SW 06:00:22 41° WNW 06:05:04 10° NNE
Cosmos 1697 Rocket 4.4 05:57:37 10° WNW 06:00:29 14° NNW 06:03:21 10° N
STARLINK-36 3.9 05:56:34 10° W 06:00:29 50° NNW 06:04:26 10° ENE
Cosmos 1680 Rocket 4.3 05:56:53 10° WSW 06:01:34 30° NW 06:06:16 10° N
Cosmos 371 Rocket 4.2 05:57:05 10° NNW 06:01:51 51° ENE 06:06:33 10° SE
ALOS 3.8 05:59:37 10° NNW 06:02:19 15° WNW 06:05:01 10° W
STARLINK-68 3.9 05:58:26 10° W 06:02:21 48° NNW 06:06:17 10° ENE
STARLINK-29 3.5 05:59:26 10° WNW 06:02:54 57° SSW 06:06:23 10° SE
Cosmos 2058 2.9 05:59:13 10° NNW 06:03:26 70° W 06:07:36 10° S
STARLINK-52 3.4 06:00:23 10° WNW 06:03:51 61° SSW 06:07:19 10° SE
STARLINK-63 3.9 06:00:00 10° W 06:03:55 48° NNW 06:07:51 10° ENE
STARLINK-35 3.9 06:01:32 10° W 06:05:28 49° NNW 06:09:24 10° ENE
